Location: Alpine Heights
(32.8181°N, 116.7809°W)
Time: 00:03:25
(UTC+00:00)

Cosmos 1459 Rocket - Pass Details

Date: 14 April 2021
Orbit: 938 x 999 km, 83.0° (Epoch: 14 May)

Event Time Altitude Azimuth Distance (km) Brightness Sun altitude
Rises 12:33:18 0° 357° (N) 3,725 7.2 -9.9°
Reaches altitude 10° 12:35:52 10° 359° (N) 2,772 6.6 -9.4°
Maximum altitude 12:42:13 70° 83° (E) 1,057 4.5 -8.2°
Drops below altitude 10° 12:48:29 10° 167° (SSE) 2,738 6.3 -6.9°
Sets 12:51:00 0° 169° (S) 3,676 7.0 -6.4°
